sat.trackr.live / text

‹ back to catalog

NIMIQ 2

NORAD 27632 · 2002-062A

PAYLOAD ACTIVE UNKNOWN

§ Identity

Operator
Country
CA
Launch date
2002-12-29
Launch site
TYMSC
Launch vehicle
Mass (kg)
RCS (m²)
111.29

Purposes: comms

External: N2YO · Heavens-Above · Gunter

§ Orbital elements

Epoch: 2026-05-24T07:46:38.859168Z

Period
1,436.11 min
Inclination
9.3940°
Eccentricity
0.0005965
Mean motion
1.00270898 rev/d
Perigee alt
35,761.7 km
Apogee alt
35,812.0 km
Semi-major
42,165.0 km
B*
0.0000e+0
RAAN
57.1533°
Arg perigee
0.3420°
Mean anomaly
191.9185°
Rev number
4,394

§ Raw data

NIMIQ 21 27632U 02062A   26144.32406087 -.00000074  00000+0  00000+0 0  99972 27632   9.3940  57.1533 0005965   0.3420 191.9185  1.00270898 43944

JSON: /api/v1/satellites/27632 · /tle

For live sub-satellite position, see the globe view (requires WebGL).

§ Visibility from observer

Set your observer location to see the next 7 days of passes ≥ 10°. The values pass through the URL so the page stays shareable.

No JS? Fill the form by hand. The geolocation button needs JavaScript.